Weather in Luk'yanovka

Russia / Lipetsk Oblast     52°57′47″N   38°14′59″E
temp.,
°C
wind,
m/s
gust,
m/s
humid.,
%
clouds,
%
prec.,
mm/h
press.,
hPa
HPBL,
m
22 january, sat
sat2200:00−5s81594100 0.2 1002657
03:00−5s71493100 0.7 1002531
06:00−5s61295100 0.3 1003465
09:00−6s6119487 0.5 1005369
12:00−5s599489 0.1 1007362
15:00−6s4895100 0.1 1009323
18:00−8sse3797100 0.0 1011111
21:00−9sse3698100 0.1 101382
23 january, sun
sun2300:00−8s2497100 0.1 101577
03:00−11sse229887 0.1 101710
06:00−14se2210097 0.0 102028
09:00−16se2210095 0.1 102311
12:00−10ese229777 0.0 102677
15:00−9ene239745 0.0 102753
18:00−14ne359975 0.0 103146
21:00−15ne489987 0.0 1032102
24 january, mon
mon2400:00−15nne3810089 0.0 1033110
03:00−13nne5129898 0.0 1033218
06:00−11ne6159595 0.1 1032300
09:00−10ne6139598 0.2 1033318
12:00−7ne51195100 0.3 1034331
15:00−6ene51192100 0.3 1032362
18:00−9ene5119395 0.0 1032246
21:00−13ne4109767 0.0 1032139
25 january, tue
tue2500:00−15ene369738 0.0 103178
03:00−17e229983 0.0 103031
06:00−17ene249966 0.0 102851
09:00−16ese24100100 0.0 102771
12:00−10sse249487 0.1 1025163
15:00−9s259672 0.1 1024143
18:00−14sse3310099 0.0 102337
21:00−14s35100100 0.1 102361
26 january, wed
wed2600:00−13sw359899 0.1 102278
03:00−13sw359870 0.1 102171
06:00−14w2298100 0.1 102138
09:00−11wsw2497100 0.1 102186
12:00−9wsw259590 0.0 1021179
15:00−9wsw2396100 0.1 102172
18:00−15wsw229974 0.0 102214
21:00−18sw22100100 0.0 102218